TimeAST,TemperatureF,Dew PointF,Humidity,Sea Level PressureIn,VisibilityMPH,Wind Direction,Wind SpeedMPH,Gust SpeedMPH,PrecipitationIn,Events,Conditions,WindDirDegrees,DateUTC
12:00 AM,77.0,69.8,78,29.98,6.2,East,9.2,-,N/A,,Scattered Clouds,80,2013-01-18 04:00:00
1:00 AM,77.0,71.6,83,29.95,6.2,East,9.2,-,N/A,,Scattered Clouds,80,2013-01-18 05:00:00
2:00 AM,77.0,71.6,83,29.95,6.2,East,10.4,-,N/A,,Scattered Clouds,80,2013-01-18 06:00:00
3:00 AM,77.0,69.8,78,29.95,-9999.0,East,9.2,-,N/A,,Unknown,90,2013-01-18 07:00:00
4:00 AM,77.0,71.6,83,29.92,-9999.0,East,8.1,-,N/A,,Unknown,90,2013-01-18 08:00:00
5:00 AM,77,72,79,,,East,8.1,,,,Clear,90,2013-01-18 09:00:00
5:00 AM,77.0,71.6,83,29.95,-9999.0,East,8.1,-,N/A,,Unknown,90,2013-01-18 09:00:00
6:00 AM,77.0,71.6,83,29.95,-9999.0,East,8.1,-,N/A,,Unknown,80,2013-01-18 10:00:00
7:00 AM,77.0,71.6,83,29.98,-9999.0,East,5.8,-,N/A,,Unknown,90,2013-01-18 11:00:00
8:00 AM,80,72,72,30.03,19,East,10.4,,,,Partly Cloudy,90,2013-01-18 12:00:00
8:00 AM,78.8,73.4,83,30.01,6.2,East,10.4,-,N/A,,Scattered Clouds,90,2013-01-18 12:00:00
9:00 AM,82.4,75.2,79,30.04,6.2,East,13.8,-,N/A,,Scattered Clouds,100,2013-01-18 13:00:00
10:00 AM,80.6,73.4,79,30.04,-9999.0,East,13.8,-,N/A,,Unknown,90,2013-01-18 14:00:00
11:00 AM,80,72,70,30.06,19,ESE,13.8,,,,Partly Cloudy,110,2013-01-18 15:00:00
11:00 AM,80.6,71.6,74,30.04,6.2,ESE,13.8,-,N/A,,Mostly Cloudy,110,2013-01-18 15:00:00
12:00 PM,82.4,71.6,70,30.01,-9999.0,North,-9999.0,-,N/A,,Unknown,0,2013-01-18 16:00:00
2:00 PM,84,73,61,29.96,19,East,19.6,,,,Partly Cloudy,100,2013-01-18 18:00:00
2:00 PM,84.2,73.4,70,29.95,6.2,East,19.6,-,N/A,,Scattered Clouds,100,2013-01-18 18:00:00
3:00 PM,84.2,71.6,66,29.92,-9999.0,East,18.4,-,N/A,,Unknown,90,2013-01-18 19:00:00
4:00 PM,82.4,71.6,70,29.92,6.2,East,17.3,-,N/A,,Scattered Clouds,90,2013-01-18 20:00:00
5:00 PM,83,72,62,29.95,19,East,12.7,,,,Scattered Clouds,100,2013-01-18 21:00:00
5:00 PM,82.4,71.6,70,29.95,-9999.0,East,12.7,-,N/A,,Unknown,100,2013-01-18 21:00:00
6:00 PM,80.6,71.6,74,29.95,-9999.0,East,12.7,-,N/A,,Unknown,90,2013-01-18 22:00:00
7:00 PM,78.8,71.6,78,29.95,6.2,ENE,8.1,-,N/A,,Partly Cloudy,70,2013-01-18 23:00:00
8:00 PM,78.8,71.6,78,29.98,6.2,ENE,6.9,-,N/A,,Partly Cloudy,70,2013-01-19 00:00:00
9:00 PM,77.0,71.6,83,30.01,-9999.0,East,6.9,-,N/A,,Unknown,80,2013-01-19 01:00:00
11:00 PM,77,70,74,,,East,8.1,,,,Clear,90,2013-01-19 03:00:00
11:00 PM,77.0,69.8,78,30.01,-9999.0,North,-9999.0,-,N/A,,Unknown,0,2013-01-19 03:00:00